Regional Weather Roundup
Issued by NWS

Home | Current Version | Previous Version | Text Only | Print | Product List | Glossary Off
Versions: 1 2 3 4 5 6 7 8 9 10 11 12 13 14 15 16 17 18 19 20 21 22 23 24 25 26 27 28 29 30 31 32 33 34 35 36 37 38 39 40 41 42 43 44 45 46 47 48 49 50

000
ASUS43 KMPX 241610
RWRMN
WEATHER ROUNDUP FOR MINNESOTA
NATIONAL WEATHER SERVICE TWIN CITIES/CHANHASSEN MN
1100 AM CDT SUN JUL 24 2016


NOTE: "FAIR" INDICATES FEW OR NO CLOUDS BELOW 12,000 FEET WITH NO
SIGNIFICANT WEATHER AND/OR OBSTRUCTIONS TO VISIBILITY. N/A MEANS
CURRENT SKY AND/OR WEATHER CONDITIONS ARE NOT AVAILABLE.

MNZ060>063-068>070-241700-
   Twin Cities Metro

CITY           SKY/WX    TMP DP  RH WIND       PRES   REMARKS
TWIN CITIES    MOSUNNY   81  64  56 W15       29.88R
ST PAUL        MOSUNNY   81  66  60 W12       29.87R
CRYSTAL        SUNNY     79  61  53 W14       29.86R
BLAINE         PTSUNNY   82  66  57 W10       29.85R
LAKEVILLE      SUNNY     77  64  65 W12G18    29.89R
EDEN PRAIRIE   SUNNY     80  63  55 W12       29.88R
LAKEVILLE      SUNNY     77  64  65 W12G18    29.89R
SOUTH ST PAUL  SUNNY     81  65  58 W12       29.87R
LAKE ELMO      FAIR      79  68  69 W14       29.88R
$$
MNZ001>005-007-008-013>017-022>024-027-028-241700-
   Northwest Minnesota

CITY           SKY/WX    TMP DP  RH WIND       PRES   REMARKS
BEMIDJI        SUNNY     72  61  68 W16       29.87R
HALLOCK        SUNNY     73  63  68 W13G18    29.81S
ROSEAU         SUNNY     72  64  78 W13G18    29.80S
WARROAD        MOSUNNY   70  64  83 W15       29.79S
THIEF RVR FALL SUNNY     71  62  73 W14       29.87R
CROOKSTON      MOSUNNY   73  64  73 NW13G18   29.87R
FOSSTON        SUNNY     70  61  73 W12       29.89R
DETROIT LAKES  MOSUNNY   72  61  68 NW14      29.93S
MOORHEAD       MOSUNNY   73  63  68 W9        29.92S
PARK RAPIDS    MOSUNNY   73  61  65 W17       29.89R
MAHNOMEN       FAIR      71  61  70 W13       29.90R
$$
MNZ006-009>011-018-025>026-241700-
   North Central Minnesota

CITY           SKY/WX    TMP DP  RH WIND       PRES   REMARKS
BAUDETTE       MOSUNNY   72  61  68 W13G18    29.78S
FLAG ISLAND    MOSUNNY   70  61  73 W17       29.75S
INTL FALLS     PTSUNNY   70  61  73 W15G21    29.77R
WASKISH        MOSUNNY   72  63  73 W14       29.82R
BIG FORK       PTSUNNY   72  61  68 W5G17     29.82R
LONGVILLE      CLOUDY    72  61  68 W7        29.87R
GRAND RAPIDS   PTSUNNY   73  61  65 W14G21    29.86R
CRANE LAKE     PTSUNNY   70  61  73 W7        29.78R
ORR            PTSUNNY   72  59  64 W10       29.77R
COOK           MOSUNNY   73  61  64 W16       29.79R
WALKER         FAIR      70  60  71 W9        29.87R
$$
MNZ012-019>021-037-241700-
   Northeast Minnesota

CITY           SKY/WX    TMP DP  RH WIND       PRES   REMARKS
DULUTH         MOSUNNY   77  65  66 W13       29.80S
ELY            MOSUNNY   73  61  64 W13G18    29.76R
HIBBING        MOSUNNY   73  61  65 W9        29.80S
EVELETH        MOSUNNY   74  59  58 W13G24    29.80R
DULUTH HARBOR  MOSUNNY   79  70  73 SW10      29.78R
TWO HARBORS    SUNNY     81  68  65 W12       29.75S
SILVER BAY     MOSUNNY   81  64  57 SW7       29.74R
GRAND MARAIS     N/A     62  59  90 W5        29.72R
G MARAIS ARPRT CLOUDY    72  64  78 SW5       29.77R
$$
MNZ029>031-032-039>041-046>048-054>057-064-241700-
   West Central Minnesota

CITY           SKY/WX    TMP DP  RH WIND       PRES   REMARKS
FERGUS FALLS   CLOUDY    72  63  73 NW14      29.95R
WHEATON        CLOUDY    75  64  69 NW15      29.96F
MORRIS         CLOUDY    73  63  68 NW10        N/A
ALEXANDRIA     PTSUNNY   71  61  70 W15G22    29.96R
ELBOW LAKE     FAIR      69  62  78 NW8       29.96R
WADENA         MOSUNNY   70  61  73 NW10G21   29.90R
GLENWOOD       MOSUNNY   72  63  73 W16       29.96R
APPLETON       PTSUNNY   75  61  60 NW12      29.95S
BENSON         SUNNY     75  61  60 NW15      29.95R
ORTONVILLE     CLOUDY    75  61  60 NW13      29.97S
MADISON        CLOUDY    73  61  64 NW10      29.97S
WILLMAR        FAIR      73  64  73 W14G20    29.96R
$$
MNZ033>034-036-042>043-049>051-058-059-241700-
   Central Minnesota

CITY           SKY/WX    TMP DP  RH WIND       PRES   REMARKS
ST CLOUD       MOSUNNY   75  64  68 W15       29.89R
SAUK CENTRE    FAIR      73  60  64 W13       29.93R
PAYNESVILLE    MOSUNNY   73  65  76 W13G21    29.94R
AITKIN         MOSUNNY   75  59  57 NW9G16    29.85R
PINE RIVER     CLOUDY    72  63  73 W9        29.91R
BRAINERD       MOSUNNY   73  62  68 NW14G23   29.88R
STAPLES        CLOUDY    72  61  68 W13       29.90R
LONG PRAIRIE   FAIR      72  61  68 W14G20    29.93R
LITTLE FALLS   MOSUNNY   73  59  60 W14       29.90R
LITCHFIELD     MOSUNNY   75  66  73 W12       29.93R
BUFFALO        MOSUNNY   75  61  60 W14       29.91R
MAPLE LAKE     MOSUNNY   76  65  67 W9        29.91R
HUTCHINSON     SUNNY     75  66  74 W13       29.94R
$$
MNZ037-044-045-052-053-241700-
   East Central Minnesota

CITY           SKY/WX    TMP DP  RH WIND       PRES   REMARKS
PRINCETON      SUNNY     79  63  57 W14       29.88R
MORA           MOSUNNY   75  63  64 NW10G17   29.87R
CAMBRIDGE      SUNNY     81  64  57 W9G18     29.84R
RUSH CITY      SUNNY     78  65  64 W10G16    29.85R
MOOSE LAKE     PTSUNNY   75  63  64 W8G16     29.81R
HINCKLEY       FAIR      77  64  65 W8G18     29.84R
CLOQUET          N/A     75  61  60 W13       29.81S
MCGREGOR       MOSUNNY   73  63  68 W12G21    29.85R
$$
MNZ071>073-080-081-089-090-097-098-241700-
   Southwest Minnesota

CITY           SKY/WX    TMP DP  RH WIND       PRES   REMARKS
MONTEVIDEO     MOSUNNY   77  63  61 N10       29.98F
GRANITE FALLS  PTSUNNY   75  64  68 NW12      29.98S
CANBY          CLOUDY    74  62  65 N8        29.97F
MARSHALL       CLOUDY    74  62  66 N9        29.99S
REDWOOD FALLS  CLOUDY    75  61  61 NW9       29.96R
OLIVIA         MOSUNNY   73  63  68 NW13G23   29.95S
PIPESTONE      PTSUNNY   75  59  57 N7        30.00F
WINDOM         MOSUNNY   75  61  60 NW14      29.98S
WORTHINGTON    SUNNY     76  63  64 MISG      30.00S
JACKSON        SUNNY     77  61  57 NW10G18   29.99S
TRACY          CLOUDY    73  65  74 NW8       29.99F
SLAYTON        PTSUNNY   73  60  63 N10G17    30.01S
$$
MNZ065>067-074>077-082>085-091>093-241700-
   South Central Minnesota

CITY           SKY/WX    TMP DP  RH WIND       PRES   REMARKS
MANKATO        SUNNY     77  63  61 NW16      29.92F
NEW ULM        MOSUNNY   75  63  64 NW13G20   29.95R
ST JAMES       SUNNY     73  59  60 NW12G21   29.96R
FAIRMONT       SUNNY     77  46  33 NW8       29.95R
GLENCOE        PTSUNNY   75  67  75 W8        29.91R
FARIBAULT      SUNNY     79  68  69 W8G17     29.91R
OWATONNA       SUNNY     79  64  61 W15       29.92R
WASECA         SUNNY     77  64  65 NW14G20   29.94R
ALBERT LEA     SUNNY     79  64  61 NW5       29.93R
$$
MNZ078>079-086>088-094>096-241700-
   Southeast Minnesota

CITY           SKY/WX    TMP DP  RH WIND       PRES   REMARKS
ROCHESTER      SUNNY     81  69  67 NW14      29.89R
RED WING       SUNNY     82  68  61 NW13G20   29.84R
STANTON        SUNNY     81  66  61 W15       29.88R
DODGE CENTER   SUNNY     81  66  61 NW14      29.91R
WINONA         MOSUNNY   82  72  69 NW9       29.83R
AUSTIN         SUNNY     81  66  61 NW14G21   29.91R
PRESTON        SUNNY     80  69  70 NW12      29.89R
$$
ABBREVIATIONS USED IN REMARKS
   TC - TEMPERATURES IN CELSIUS
  WCI - WIND CHILL INDEX
   HX - HEAT INDEX
  VSB - VISIBILITY
$$




USA.gov is the U.S. government's official web portal to all federal, state and local government web resources and services.